Live-Position
3D-Globus wird geladen...
Über Starlink 3562
Group: 3 satellites
Beschreibung wird geladen...
Nächste Überflüge
Passes for default location (London). Set your location on the main map for personalized predictions.
Höhenverlauf
Loading altitude history...
No altitude history available
Zweizeiliger Elementsatz
1 51861U 22022K 26127.20375135 .00001585 00000-0 11761-3 0 9991
2 51861 53.2161 106.4412 0001368 86.7062 273.4086 15.08843240231861
Epoch: 7. Mai 2026 •
Age: 8 hours
Aktueller Status
Höhe 558.2 km
Geschwindigkeit 7.58 km/s
Subsatellitenpunkt -50.73°S,
13.4°W
Startdatum 3. März 2022
Alter 4.1 years
Typ internet
Startgruppe
Falcon 9 •
Group 4-9 •
45 satellites
Starlink 3542
51852
Starlink 3541 51854
Starlink 3545 51855
Starlink 3568 51856
Starlink 3571 51857
Starlink 3563 51858
Starlink 3560 51859
Starlink 3559 51860
Starlink 3508 51862
Starlink 3555 51863
Starlink 3548 51864
Starlink 3503 51865
Starlink 3553 51866
Starlink 3590 51867
Starlink 3578 51868
Starlink 3588 51869
Starlink 3591 51870
Starlink 3567 51871
Starlink 3554 51872
Starlink 3582 51873
...and 24 more
Technische Details
Klassifizierung Payload
Masse 297.00 kg
Trockenmasse 275.00 kg
Gesamtmasse 297.00 kg
Länge 0.20 m
Durchmesser 2.80 m
Spannweite 9.00 m
Form Box + pan
Hersteller SPXS
Bus-Typ Starlink
Phasenstatus In Orbit
Besitzer/Staat SPXS/US
Most Searched
Loading...